Погода в Жарыке

Погода в Жарыке : погода сейчас, прогноз погоды и архив. Всё, что Вы хотите узнать о погоде в Жарыке!

Поиск расширенной информации на нашем сайте:

Другие новости

Новости СМИ2

Главная страница сайта

Новости сайта

03.07.2017

Напоминаем, что на нашем специализированном сайте Метеоцентр.Азия вы можете получить высокодетализированные автоматические прогнозы погоды по пунктам России, СНГ и мира в авиационном формате (включающие направление и скорость ветра, видимость, явления погоды, количество и форму облачности, нижнюю и верхнюю границу облачности).


Погода в Жарыке - сегодня

Время (UTC), дата Ветер
(°,м/с) 
Видим.   Явления Облачность Т
(°С)
Тd
(°С)
f(%) Тe
(°С)
Pmin
(гПа)
dP
(гПа)
Po
(мм)
O2
(г/м3)
Тmin Tmax R s Состояние
почвы
09 22.06.18 250 (З) 20000 м    8/8 1000 м 
[Sc]
+31.2 +1.7 15 +31  998.4  -1.3  696  251           
12 22.06.18 020 (С) 92  0400 м    3/3 600 м 
[Cu hum]
+0.2   998.9  696             
15 22.06.18 230 (ЮЗ) 10 км  гроза, ливневой дождь  9/9 600 м кучево-дожд. 
[Cb cap]
+17 +13.4 79 +25  1004.7  2.8  698  262    +33       
18 22.06.18 140 (ЮВ) н/о  {гроза, ливн. осадки}  9/9 600 м кучево-дожд. 
[Cb cap]
+16.8 +13.5 81 +26  1003.5  -1.2  698  262    +33     
21 22.06.18 140 (ЮВ) н/о    9/9 600 м кучево-дожд. 
[Cb cap]
+16 +11.9 77 +22  1003  -0.7  697  263           
00 23.06.18 140 (ЮВ) 20000 м    9/3 600 м кучево-дожд., средняя, верхняя 
[Cb cap|Ac lent|Ci sp]
+14.6 +9.6 72 +18  1003.5  0.1  697  265           
06 23.06.18 160 (Ю) 20000 м    4/3 1000 м верхняя 
[Cu med, cong|Ci sp]
+23.1 +12.2 50 +29  1001.5  0.2  697  257  +14.6    0.3     
09 23.06.18 270 (З) 20000 м    6/6 1000 м 
[Cu med, cong]
+26.1 +6.4 28 +26  1000.1  -0.7  697  255           
12 23.06.18 250 (З) 20000 м    3/3 1000 м 
[Cu med, cong]
+26.4 +4 24 +26  999.7  -0.4  696  255           
15 23.06.18 340 (С) 20000 м    4/3 1000 м верхняя 
[Cu med, cong|Ci sp]
+21.4 +6.8 39 +21  1001.8  0.9  697  259    +28       
18 23.06.18 020 (С) н/о    4/0 средняя 
[Ac trans]
+14.4 +8 65 +16  1004.1  0.4  697  265    +28       
21 23.06.18 050 (СВ) н/о    3/0 средняя 
[Ac trans]
+12.5 +9.5 82 +16  1004  -0.5  697  267           
00 24.06.18 050 (СВ) 20000 м    6/0 средняя 
[Ac lent]
+13.2 +9 76 +15  1004  0.2  697  266           
03 24.06.18 тихо ()   20000 м    4/0 средняя 
[Ac lent]
+20.2 +8.8 48 +21  1002.7  0.5  698  260           
06 24.06.18 340 (С) 20000 м    8/6 600 м кучево-дожд., средняя 
[Cb cap|Ac lent]
+21.7 +8.5 43 +22  1001.9  -0.4  697  259  +12.5         
09 24.06.18 270 (З) 20000 м    9/6 600 м кучево-дожд., верхняя 
[Cb cap|Ci sp]
+24.1 +5.4 30 +24  1000.6  -0.7  697  257           
12 24.06.18 340 (С) 20000 м    8/5 600 м кучево-дожд., средняя 
[Cb cap|Ac trans]
+20.2 +9 48 +21  1002.4  0.8  697  260           
15 24.06.18 050 (СВ) 20000 м    9/9 600 м кучево-дожд. 
[Cb cap]
+19.9 +9.5 51 +23  1004.1  1.5  698  261    +25       
18 24.06.18 тихо ()   н/о    6/0 средняя, верхняя 
[Ac trans|Ci fib]
+16 +10.3 69 +19  1005.7  0.6  699  264    +25       
21 24.06.18 тихо ()   н/о    5/0 средняя 
[Ac lent]
+12.8 +9.6 81 +15  1006.2  -0.4  699  267           
00 25.06.18 тихо ()   20000 м    8/5 600 м кучево-дожд., средняя 
[Cb cap|Ac lent]
+10.8 +9.1 89 +12  1007.2  0.4  699  269           
03 25.06.18 020 (С) 10 км  гроза, ливневой дождь  9/9 600 м кучево-дожд. 
[Cb cap]
+13.6 +11.6 88 +19  1007.6  1.2  700  266           
06 25.06.18 320 (СЗ) 20000 м  {гроза, ливн. осадки}  4/3 600 м кучево-дожд., средняя, верхняя 
[Cb cap|Ac trans|Ci fib]
+20.5 +9.2 48 +22  1004.9  -0.9  699  260  +10.8       
09 25.06.18 320 (СЗ) 20000 м    9/9 600 м кучево-дожд. 
[Cb cap]
+20.8 +10.3 51 +24  1004  -0.8  698  260           
12 25.06.18 250 (З) 20000 м  {гроза}  9/6 600 м кучево-дожд., верхняя 
[Cb cap|Ci sp]
+19.8 +11.2 58 +25  1004.9  0.7  699  260           
Время (UTC), дата Ветер
(°,м/с) 
Видим.   Явления Облачность Т
(°С)
Тd
(°С)
f(%) Тe
(°С)
Pmin
(гПа)
dP
(гПа)
Po
(мм)
O2
(г/м3)
Тmin Tmax R s Состояние
почвы

Для получения пояснительной информации подведите курсор к названию столбца.

ПОГОДА в Жарыке - архив

Всё, что Вы хотите узнать о погоде в Жарыке - удобно и подробно!

Выберите нужную дату (начиная с 1 января 2015* года) и нажмите кнопку "Найти".
Будут отображены архивные сводки погоды по пункту Жарык, начиная с указанной даты.


Отображать данные в формате CSV (для использования в таблицах Excel)


Внимание! Наш архив погоды предназначен исключительно для личного некоммерческого использования в познавательных целях. Если Вам необходимы официальные справки о состоянии погоды (для производственных, юридических, коммерческих и т.п. целей), обращайтесь в органы Росгидромета.

*Примечание: данная дата относится к архиву по метеостанциям СССР (Россия, СНГ, Балтия).
Архив по метеостанциям Зарубежной Европы и Азии (кроме Китая) хранится 10 дней, по другим регионам земного шара (Китай, Африка, Америка, Австралия, Океания) - 1 день.

Жарык - район местоположения метеостанции


Название, широта, долгота, высота метеостанции:
Жарык 48.9°ш. 72.9°д. 656 м над ур. моря [Казахстан]

Дополнительная информация

В oтличие oт бoльшинства пoгoдных сайтoв мы публикуем пoдрoбную метеoинфoрмацию в детальнoм прoфессиoнальнoм фoрмате.

Характеристики температуры и влажнoсти вoздуха измеряются на высoте 2 м в тени вдали oт зданий и деревьев.
Скoрoсть ветра измеряется на высoте 10 м (на урoвне рoста челoвека скoрoсть ветра ниже в 1.5-2 раза). Если метеoстанция нахoдится в гoрoде или в лесу, тo скoрoсть ветра занижена на 2-4 м/с пo сравнению с oткрытым местoм. Скoрoсть ветра над акватoриями крупных рек и oзёр, а также на вершинах хoлмoв на 2-5 м/с выше, чем в oбычных услoвиях.
Атмoсфернoе давление в разных тoчках местнoсти мoжет значительнo oтличаться oт давления на метеoстанции, в зависимoсти oт услoвий рельефа (при пoдъёме на 10 м давление пoнижается примернo на 1 мм рт.ст.).